sat.trackr.live / text

‹ back to catalog

STARLINK-34861

NORAD 66368 · 2025-254W

PAYLOAD ACTIVE UNKNOWN

§ Identity

Operator
Country
US
Launch date
2025-11-06
Launch site
AFWTR
Launch vehicle
Mass (kg)
RCS (m²)

Purposes: comms

External: N2YO · Heavens-Above · Gunter

§ Orbital elements

Epoch: 2026-05-24T22:51:38.180736Z

Period
94.10 min
Inclination
53.1564°
Eccentricity
0.0000926
Mean motion
15.30207971 rev/d
Perigee alt
474.6 km
Apogee alt
475.8 km
Semi-major
6,853.3 km
B*
9.0324e-4
RAAN
235.9184°
Arg perigee
70.5143°
Mean anomaly
289.5958°
Rev number
3,068

§ Raw data

STARLINK-348611 66368U 25254W   26144.95252524  .00026494  00000+0  90324-3 0  99932 66368  53.1564 235.9184 0000926  70.5143 289.5958 15.30207971 30682

JSON: /api/v1/satellites/66368 · /tle

For live sub-satellite position, see the globe view (requires WebGL).

§ Visibility from observer

Set your observer location to see the next 7 days of passes ≥ 10°. The values pass through the URL so the page stays shareable.

No JS? Fill the form by hand. The geolocation button needs JavaScript.